BAW29 LIML-EDDF

Flight info

Callsign BAW29
Flight time N/A
Altitude 18000
Route PEPAG N851 ABESI/N0463F300 N851 UTAVO DCT ROLSA DCT LADOL T163 EMPAX EMPAX5C
Aircraft B738/M-SDE2E3FGHIRWXY/LB1

Departure

Time N/A
Airport Milano Linate Airport (LIML)

Arrival

Time 2026-04-15 10:58
Airport Frankfurt Main Airport (EDDF)
Time Latitude Longitude Altitude Speed Heading
2026-04-15 10:53 49.97970 8.14431 3180 ft 214 kts 79°
2026-04-15 10:53 49.98236 8.16676 3188 ft 211 kts 79°
2026-04-15 10:53 49.98502 8.18903 3178 ft 212 kts 79°
2026-04-15 10:53 49.98770 8.21159 3178 ft 212 kts 79°
2026-04-15 10:54 49.99041 8.23438 3201 ft 211 kts 79°
2026-04-15 10:54 49.99307 8.25658 3178 ft 212 kts 79°
2026-04-15 10:54 49.99575 8.27905 3178 ft 211 kts 79°
2026-04-15 10:54 49.99837 8.30102 3151 ft 201 kts 79°
2026-04-15 10:55 50.00083 8.32195 3057 ft 198 kts 79°
2026-04-15 10:55 50.00335 8.34345 2567 ft 207 kts 79°
2026-04-15 10:55 50.00609 8.36535 2135 ft 203 kts 75°
2026-04-15 10:55 50.01047 8.38573 1833 ft 193 kts 69°
2026-04-15 10:56 50.01509 8.40464 1566 ft 182 kts 69°
2026-04-15 10:56 50.01934 8.42248 1332 ft 170 kts 70°
2026-04-15 10:56 50.02333 8.43928 1106 ft 161 kts 69°
2026-04-15 10:56 50.02709 8.45511 899 ft 151 kts 69°
2026-04-15 10:57 50.03064 8.47004 713 ft 145 kts 69°
2026-04-15 10:57 50.03758 8.49928 321 ft 143 kts 70°
2026-04-15 10:57 50.04061 8.51225 333 ft 107 kts 68°
2026-04-15 10:58 50.04236 8.51999 345 ft 44 kts 83°
2026-04-15 10:58 50.04230 8.52222 343 ft 0 kts 97°
2026-04-15 11:00 50.04230 8.52225 343 ft 1 kts 97°
2026-04-15 11:00 50.04227 8.52248 343 ft 3 kts 99°
2026-04-15 11:01 50.04224 8.52277 351 ft 5 kts 102°
2026-04-15 11:01 50.04213 8.52355 346 ft 6 kts 101°
2026-04-15 11:01 50.04205 8.52425 347 ft 7 kts 99°
2026-04-15 11:01 50.04198 8.52495 349 ft 7 kts 99°
2026-04-15 11:02 50.04192 8.52565 354 ft 7 kts 94°
2026-04-15 11:02 50.04197 8.52655 355 ft 10 kts 77°
2026-04-15 11:02 50.04214 8.52738 350 ft 14 kts 70°
2026-04-15 11:02 50.04262 8.52937 357 ft 15 kts 69°
2026-04-15 11:03 50.04299 8.53085 359 ft 15 kts 70°
2026-04-15 11:03 50.04336 8.53242 360 ft 15 kts 69°
2026-04-15 11:03 50.04373 8.53396 365 ft 16 kts 70°
2026-04-15 11:03 50.04401 8.53579 364 ft 18 kts 83°
2026-04-15 11:04 50.04415 8.53777 359 ft 21 kts 85°
2026-04-15 11:04 50.04430 8.54011 362 ft 24 kts 83°
2026-04-15 11:04 50.04446 8.54294 351 ft 28 kts 89°
2026-04-15 11:04 50.04423 8.54597 351 ft 28 kts 114°
2026-04-15 11:05 50.04326 8.54757 342 ft 0 kts 147°
2026-04-15 11:05 50.04318 8.54765 342 ft 2 kts 150°
2026-04-15 11:05 50.04302 8.54777 345 ft 2 kts 154°
2026-04-15 11:05 50.04287 8.54788 349 ft 2 kts 155°
2026-04-15 11:06 50.04277 8.54795 350 ft 2 kts 156°
2026-04-15 11:06 50.04258 8.54807 355 ft 2 kts 161°
2026-04-15 11:06 50.04244 8.54814 357 ft 2 kts 161°
2026-04-15 11:06 50.04230 8.54821 357 ft 2 kts 161°
2026-04-15 11:07 50.04218 8.54828 359 ft 2 kts 161°
2026-04-15 11:07 50.04207 8.54833 360 ft 3 kts 162°
2026-04-15 11:07 50.04127 8.54876 352 ft 17 kts 160°
2026-04-15 11:07 50.04086 8.54900 349 ft 0 kts 158°
2026-04-15 11:11 50.04075 8.54907 351 ft 5 kts 158°
2026-04-15 11:11 50.04038 8.54926 351 ft 0 kts 166°
2026-04-15 11:12 50.04036 8.54930 350 ft 1 kts 145°
2026-04-15 11:12 50.04023 8.54958 354 ft 5 kts 116°
2026-04-15 11:12 50.04022 8.55023 355 ft 8 kts 77°
2026-04-15 11:12 50.04048 8.55149 354 ft 15 kts 70°
2026-04-15 11:13 50.04076 8.55261 357 ft 19 kts 68°
2026-04-15 11:13 50.04151 8.55576 350 ft 28 kts 70°
2026-04-15 11:13 50.04195 8.55755 345 ft 0 kts 70°
2026-04-15 11:14 50.04195 8.55756 345 ft 0 kts 70°